KUIPER-00060

导读 | 豆包AI

KUIPER-00060是美国亚马逊柯伊伯(Project Kuiper)卫星互联网计划的一颗低轨通信卫星,于2025年6月23日发射升空。该项目计划在近地轨道部署3236颗卫星,旨在为全球提供高速低延迟、价格可负担的互联网接入,尤其服务偏远地区,还可与亚马逊AWS云服务深度整合,拓展云与边缘计算能力,KUIPER-00060是该星座大规模部署阶段的重要组成部分。

Basic Information
目录编号:
64520
目录名称:
KUIPER-00060
国际标识:
2025-134W
轨道中心:
EARTH
卫星名称:
KUIPER-00060
卫星全名:
KUIPER-00060
卫星状态:
在轨 (已飞行314 天)
发射日期:
2025-06-23 UTC
国别 :
美国 (US)
星等 :
--
Orbit Information
数据来源 国际轨道数据
星历时间: 2026-05-03T12:10:27+0800
4小时前
查看轨道信息
半长轴: 7007.701km
偏心率: 0.0000619
轨道倾角: 51.905°
近地点辐角 99.856°
升交点赤经 339.700°
平近点角 260.248°
近地点: 629.13km
远地点: 629.998km
周期: 97.302分钟
每日圈数: 14.799242
Detailed Information
使用方式:
暂无
2D Orbit Map
3D Orbit Map
Orbit Altitude Analysis Chart
Orbit Inclination Analysis Chart
Orbit Comprehensive Analysis Chart
View Comprehensive Chart